This is the latest recevied weather packets stored in our database for station/object N4AR. If no packets are shown the sender has not sent any weather packets the latest 10 day(s).
| Time | Temp. | Humidity | Pressure | Rain* | Wind** | Luminosity | Snow |
|---|---|---|---|---|---|---|---|
| 1777606340 | 15° C | 51% | 1013.2 hPa | 0 mm | - | 0 W/m² | - |
| 1777606035 | 15.56° C | 50% | 1013.1 hPa | 0 mm | - | 0 W/m² | - |
| 1777605731 | 15.56° C | 50% | 1013.2 hPa | 0 mm | - | 0 W/m² | - |
| 1777605430 | 15.56° C | 48% | 1013.1 hPa | 0 mm | - | 0 W/m² | - |
| 1777605127 | 16.11° C | 51% | 1013 hPa | 0 mm | - | 0 W/m² | - |
| 1777604828 | 16.11° C | 51% | 1012.7 hPa | 0 mm | - | 0 W/m² | - |
| 1777604524 | 16.11° C | 53% | 1012.6 hPa | 0 mm | - | 0 W/m² | - |
| 1777604219 | 16.11° C | 54% | 1012.7 hPa | 0 mm | - | 0 W/m² | - |
| 1777603916 | 16.67° C | 55% | 1012.8 hPa | 0 mm | - | 0 W/m² | - |
| 1777603613 | 16.67° C | 56% | 1012.6 hPa | 0 mm | - | 0 W/m² | - |
| 1777603309 | 16.67° C | 59% | 1012.6 hPa | 0 mm | - | 0 W/m² | - |
| 1777603004 | 16.11° C | 68% | 1012.4 hPa | 0 mm | - | 0 W/m² | - |
| 1777602700 | 16.11° C | 74% | 1012.4 hPa | 0 mm | - | 0 W/m² | - |
| 1777602395 | 16.11° C | 78% | 1012.4 hPa | 0 mm | - | 0 W/m² | - |
| 1777602091 | 16.11° C | 80% | 1012.4 hPa | 0 mm | - | 0 W/m² | - |
| 1777601787 | 16.11° C | 83% | 1012.1 hPa | 0 mm | - | 0 W/m² | - |
| 1777601482 | 16.11° C | 83% | 1012.2 hPa | 0 mm | - | 0 W/m² | - |
| 1777601177 | 15.56° C | 83% | 1012.1 hPa | 0 mm | - | 0 W/m² | - |
| 1777600876 | 15.56° C | 84% | 1012.2 hPa | 0 mm | - | 0 W/m² | - |
| 1777600571 | 15.56° C | 84% | 1011.6 hPa | 0 mm | - | 0 W/m² | - |
| 1777600267 | 15.56° C | 85% | 1011.5 hPa | 0 mm | - | 0 W/m² | - |
| 1777599962 | 15.56° C | 88% | 1011.4 hPa | 0 mm | - | 0 W/m² | - |
| 1777599659 | 15° C | 90% | 1011.5 hPa | 0 mm | - | 0 W/m² | - |
| 1777599356 | 15° C | 93% | 1011.2 hPa | 0 mm | - | 0 W/m² | - |
| 1777599053 | 14.44° C | 94% | 1011 hPa | 0 mm | - | 0 W/m² | - |
* Rain latest hour (hover to see other rain measurements)
** Current wind speed in m/s (hover to see current wind gust speed)